Tracking 29892 objects as of 21-Nov-2024
HD Live streaming from Space Station
objects crossing your sky now

STARLINK-32043

Track STARLINK-32043 now!
10-day predictions
STARLINK-32043 is classified as:


NORAD ID: 60135
Int'l Code: 2024-120A
Perigee: 453.7 km
Apogee: 455.1 km
Inclination: 53.2 °
Period: 93.5 minutes
Semi major axis: 6825 km
RCS: Unknown
Launch date: June 27, 2024
Source: United States (US)
Launch site: AIR FORCE EASTERN TEST RANGE (AFETR)
Your satellite tracking list
Your tracking list is empty




NASA's NSSDC Master Catalog

Two Line Element Set (TLE):
1 60135U 24120A   24324.42806026 -.00001375  00000-0 -24406-4 0  9995
2 60135  53.1588   9.4421 0000989  82.4969 277.6148 15.39611476 23587
Source of the keplerian elements: AFSPC